COSMOS 1275 DEB

Satellite information

Favourite Embed

Satellite Type and Status

DEBRISIN ORBIT

Key statistics

Satellite COSMOS 1275 DEB at a glance.

Uptime

16105

Days in orbit

Revolutions

≈ 14.2

Per day

Orbit

LEO

Low Earth Orbit

Inclination

82.7

Latest

Satellite identification and parameters

Extended collection of information and parameters for COSMOS 1275 DEB.

Object identification

Identified? True

Debris? True

Object name: COSMOS 1275 DEB

International designator: 1981-053LL

Object number (NORAD): 17641

Object ID (CCSDS): 17641

Country: COMMONWEALTH OF INDEPENDENT STATES (CIS)

Current information (Y/N): Y

RCS size: SMALL

Orbital parameters

Period: 101.366 minutes

Inclination: 82.7499 deg

SMA: 7201.461 km

Apoapsis: 859.488 km

Periapsis: 787.164 km

RAAN: 192.5973 deg

Eccentricy: 0.0050215

Argument of periapsis: 352.933 deg

Mean anomaly: 159.306 deg

Mean motion: 14.20600153 rev/day

Mean motion (dot): 0.00002635 rev/day2

B* drag term: 0.0012026 1/REarth

Two-line elements (TLE)

Creation date: July 6, 2025, 6:05 p.m.

Reference frame: TEME

Reference center: EARTH

Epoch: July 6, 2025, 11:30 a.m. UTC

TLE line 0: 0 COSMOS 1275 DEB

TLE line 1: 1 17641U 81053LL 25187.47918785 .00002635 00000-0 12026-2 0 9997

TLE line 2: 2 17641 82.7499 192.5973 0050215 352.9330 159.3060 14.20600153 62750

Live tracking on map

Real-time ground track for satellite COSMOS 1275 DEB.

In-orbit conjunctions

A list of the most updated potential collisions computed for object COSMOS 1275 DEB.

Target Orbit TCA Probability of collision Miss distance Type
COSMOS 1275 DEB LEO 2025-04-08 17:22:47 0.0001895443 174.0 (m) DEBRIS
METEOR 1-14 LEO 2024-10-27 08:36:20 0.0002352611 346.0 (m) PAYLOAD

Associated space launch

Navigation satellite providing location information for the Tsiklon-B navigation system

COSMOS 1275 DEB was lifted into orbit during the mission ‘Kosmos-3M | Parus 27’, on board a Kosmos-3M space rocket.

The launch took place on June 4, 1981, 3:41 p.m. from 132/2.

For more information about the launch, click the button.

Launch to space Kosmos-3M | Parus 27
Kosmos-3M | Parus 27

Agency: N/A

Status: Launch Successful

Launch date: June 4, 1981, 3:41 p.m. UTC

Rocket: Kosmos-3M

Launch pad: 132/2

Location: Plesetsk Cosmodrome, Russian Federation

...

Latest news about this satellite

There are no fresh news available about this satellite. Check back as we update our databases every day.


Newsletter sign-up

Weekly statistics, charts and insights to help you stay on top of the space industry.